Home   Weather   Borken   Past weeks

Flag for Germany Past Weather in Borken, North Rhine-Westphalia, Germany — Yesterday and Last 2 Weeks

Now
34 °F

Sunny.


Feels Like: 34 °F
Forecast: 24 / 35 °F
Wind: No wind

Location: Twenthe

Current Time: Jan 19, 2017 at 2:28:59 pm

Latest Report: Jan 19, 2017 at 1:00 pm


Visibility: 10 mi

Pressure: 30.66 "Hg

Humidity: 65%

Dew Point: 24 °F

Location of BorkenLocation

Past Weather in Borken — Graph

°F

Borken Temperature Yesterday

Maximum temperature yesterday: 28 °F (at 4:00 pm)
Minimum temperature yesterday: 23 °F (at 8:00 am)
Average temperature yesterday: 26 °F

High & Low Weather Summary for the Past Weeks

 TemperatureHumidityPressure
High48 °F (Jan 11, 2:00 pm)100% (Jan 5, 7:00 am)30.78 "Hg (Jan 5, 7:00 am)
Low16 °F (Jan 6, 4:00 am)64% (Jan 5, 2:00 pm)28.97 "Hg (Jan 13, 2:00 am)
Average32 °F91%30.18 "Hg
* Reported Jan 4 1:00 pm — Jan 19 1:00 pm, Borken, Weather by CustomWeather, © 2017

Note: Actual official high and low records may vary slightly from our data, if they occured in-between our weather recording intervals... More about our weather records

Advertising

Borken Weather History for the Previous 24 Hours

Scroll right to see more
 ConditionsComfort  
Time TempWeatherWind HumidityBarometerVisibility
1:00 pm
Thu, Jan 19
34 °FSunny.No wind65%30.66 "Hg10 mi
12:00 pm31 °FSunny.1 mph74%30.68 "Hg7 mi
11:00 am31 °FSunny.2 mph80%30.68 "Hg6 mi
10:00 am28 °FOvercast.2 mph91%30.69 "Hg4 mi
9:00 am26 °FOvercast.1 mph96%30.68 "Hg2 mi
8:00 am25 °FFog.1 mph96%30.67 "Hg2 mi
7:00 am25 °FOvercast.No wind94%30.66 "Hg3 mi
6:00 am26 °FOvercast.1 mph92%30.67 "Hg4 mi
5:00 am27 °FOvercast.2 mph89%30.67 "Hg6 mi
4:00 am27 °FFog.1 mph93%30.68 "Hg5 mi
3:00 am27 °FOvercast.1 mph93%30.67 "Hg4 mi
2:00 am27 °FFog.2 mph94%30.68 "Hg4 mi
1:00 am26 °FFog.1 mph93%30.68 "Hg4 mi
12:00 am27 °FOvercast.1 mph94%30.69 "Hg4 mi
11:00 pm
Wed, Jan 18
23 °FOvercast.1 mph97%30.69 "Hg1 mi
10:00 pm25 °FPassing clouds.1 mph98%30.69 "Hg1 mi
9:00 pm27 °FFog.1 mph96%30.70 "Hg2 mi
8:00 pm28 °FOvercast.1 mph97%30.70 "Hg2 mi
7:00 pm28 °FOvercast.2 mph96%30.71 "Hg1 mi
6:00 pm28 °FOvercast.1 mph96%30.71 "Hg2 mi
5:00 pm28 °FOvercast.1 mph96%30.71 "Hg2 mi
4:00 pm28 °FLow clouds.1 mph96%30.71 "Hg2 mi
3:00 pm27 °FFog.2 mph94%30.71 "Hg2 mi
2:00 pm28 °FLow clouds.2 mph93%30.71 "Hg2 mi
Weather by CustomWeather, © 2017

See weather overviewHow to use our weather pages